Time,TemperatureF,DewpointF,PressureIn,WindDirection,WindDirectionDegrees,WindSpeedMPH,WindSpeedGustMPH,Humidity,HourlyPrecipIn,Conditions,Clouds,dailyrainin,SoftwareType,DateUTC
2013-01-24 07:30:00,-4.9,-16.3,30.03,SSE,150,5.0,5.0,57,0.00,,,0.00,Wunderground v.1.15,2013-01-24 12:30:00,
2013-01-24 07:35:00,-4.8,-16.2,30.04,South,190,4.0,5.0,57,0.00,,,0.00,Wunderground v.1.15,2013-01-24 12:35:00,
2013-01-24 07:40:00,-4.7,-16.4,30.04,WSW,242,4.0,4.0,56,0.00,,,0.00,Wunderground v.1.15,2013-01-24 12:40:00,
2013-01-24 07:50:00,-3.9,-15.7,30.05,WNW,297,4.0,4.0,56,0.00,,,0.00,Wunderground v.1.15,2013-01-24 12:50:00,
2013-01-24 07:55:00,-3.8,-15.9,30.04,SW,215,4.0,4.0,55,0.00,,,0.00,Wunderground v.1.15,2013-01-24 12:55:00,
2013-01-24 08:05:00,-3.6,-15.8,30.04,ESE,112,3.0,6.0,55,0.00,,,0.00,Wunderground v.1.15,2013-01-24 13:05:00,
2013-01-24 08:10:00,-3.4,-15.6,30.04,SSW,200,4.0,4.0,55,0.00,,,0.00,Wunderground v.1.15,2013-01-24 13:10:00,
2013-01-24 08:15:00,-3.3,-15.8,30.04,NW,322,4.0,6.0,54,0.00,,,0.00,Wunderground v.1.15,2013-01-24 13:15:00,
2013-01-24 08:25:00,-3.0,-15.2,30.04,ESE,111,3.0,7.0,55,0.00,,,0.00,Wunderground v.1.15,2013-01-24 13:25:00,
2013-01-24 08:35:00,-2.9,-15.8,30.05,SE,146,4.0,8.0,53,0.00,,,0.00,Wunderground v.1.15,2013-01-24 13:35:00,
2013-01-24 08:40:00,-2.7,-15.6,30.05,NNE,29,4.0,4.0,53,0.00,,,0.00,Wunderground v.1.15,2013-01-24 13:40:00,
2013-01-24 08:45:00,-2.5,-15.4,30.05,NNE,30,4.0,4.0,53,0.00,,,0.00,Wunderground v.1.15,2013-01-24 13:45:00,
2013-01-24 08:55:00,-2.2,-15.5,30.05,SW,223,5.0,5.0,52,0.00,,,0.00,Wunderground v.1.15,2013-01-24 13:55:00,
2013-01-24 09:00:00,-2.1,-15.8,30.05,ENE,73,4.0,4.0,51,0.00,,,0.00,Wunderground v.1.15,2013-01-24 14:00:00,
2013-01-24 09:10:00,-2.0,-16.1,30.05,West,271,5.0,5.0,50,0.00,,,0.00,Wunderground v.1.15,2013-01-24 14:10:00,
2013-01-24 09:15:00,-2.0,-16.1,30.05,NE,54,5.0,5.0,50,0.00,,,0.00,Wunderground v.1.15,2013-01-24 14:15:00,
2013-01-24 09:25:00,-2.0,-16.5,30.06,North,358,5.0,5.0,49,0.00,,,0.00,Wunderground v.1.15,2013-01-24 14:25:00,
2013-01-24 09:30:00,-2.1,-16.6,30.05,SE,132,5.0,5.0,49,0.00,,,0.00,Wunderground v.1.15,2013-01-24 14:30:00,
2013-01-24 09:40:00,-1.9,-16.4,30.04,NW,312,5.0,11.0,49,0.00,,,0.00,Wunderground v.1.15,2013-01-24 14:40:00,
2013-01-24 09:45:00,-1.7,-16.2,30.03,NNW,328,5.0,11.0,49,0.00,,,0.00,Wunderground v.1.15,2013-01-24 14:45:00,
2013-01-24 09:55:00,-1.0,-16.0,30.03,South,169,6.0,6.0,48,0.00,,,0.00,Wunderground v.1.15,2013-01-24 14:55:00,
2013-01-24 10:00:00,-0.6,-16.0,30.03,South,187,6.0,6.0,47,0.00,,,0.00,Wunderground v.1.15,2013-01-24 15:00:00,
2013-01-24 10:10:00,-0.2,-15.7,30.03,SE,128,6.0,6.0,47,0.00,,,0.00,Wunderground v.1.15,2013-01-24 15:10:00,
2013-01-24 10:15:00,0.1,-15.4,30.02,WNW,294,6.0,10.0,47,0.00,,,0.00,Wunderground v.1.15,2013-01-24 15:15:00,
2013-01-24 10:25:00,0.5,-15.5,30.02,NNW,329,6.0,6.0,46,0.00,,,0.00,Wunderground v.1.15,2013-01-24 15:25:00,
2013-01-24 10:30:00,0.5,-15.9,30.02,SE,135,6.0,6.0,45,0.00,,,0.00,Wunderground v.1.15,2013-01-24 15:30:00,
2013-01-24 10:40:00,0.8,-15.6,30.02,WNW,288,7.0,7.0,45,0.00,,,0.00,Wunderground v.1.15,2013-01-24 15:40:00,
2013-01-24 10:45:00,1.1,-15.8,30.02,NW,321,6.0,7.0,44,0.00,,,0.00,Wunderground v.1.15,2013-01-24 15:45:00,
2013-01-24 10:50:00,1.2,-15.7,30.02,WNW,290,7.0,8.0,44,0.00,,,0.00,Wunderground v.1.15,2013-01-24 15:50:00,
2013-01-24 11:00:00,1.2,-16.6,30.02,WNW,283,6.0,9.0,42,0.00,,,0.00,Wunderground v.1.15,2013-01-24 16:00:00,
2013-01-24 11:05:00,1.3,-16.1,30.02,NNW,335,6.0,9.0,43,0.00,,,0.00,Wunderground v.1.15,2013-01-24 16:05:00,
2013-01-24 11:15:00,1.5,-15.9,30.02,NW,319,5.0,12.0,43,0.00,,,0.00,Wunderground v.1.15,2013-01-24 16:15:00,
2013-01-24 11:20:00,1.5,-16.3,30.02,WNW,285,6.0,6.0,42,0.00,,,0.00,Wunderground v.1.15,2013-01-24 16:20:00,
2013-01-24 11:30:00,1.7,-17.1,30.01,NW,316,7.0,7.0,40,0.00,,,0.00,Wunderground v.1.15,2013-01-24 16:30:00,
2013-01-24 11:35:00,1.9,-16.9,30.01,WNW,297,7.0,7.0,40,0.00,,,0.00,Wunderground v.1.15,2013-01-24 16:35:00,
2013-01-24 11:45:00,2.4,-16.5,30.01,WNW,287,8.0,11.0,40,0.00,,,0.00,Wunderground v.1.15,2013-01-24 16:45:00,
2013-01-24 11:50:00,2.5,-16.4,30.01,West,262,6.0,6.0,40,0.00,,,0.00,Wunderground v.1.15,2013-01-24 16:50:00,
2013-01-24 11:55:00,2.7,-16.2,30.01,NNW,344,5.0,6.0,40,0.00,,,0.00,Wunderground v.1.15,2013-01-24 16:55:00,
2013-01-24 12:05:00,3.0,-15.9,30.00,WNW,297,5.0,8.0,40,0.00,,,0.00,Wunderground v.1.15,2013-01-24 17:05:00,
2013-01-24 12:10:00,3.1,-16.3,30.00,SSW,202,6.0,7.0,39,0.00,,,0.00,Wunderground v.1.15,2013-01-24 17:10:00,
2013-01-24 12:20:00,3.2,-16.2,30.00,SSE,165,6.0,6.0,39,0.00,,,0.00,Wunderground v.1.15,2013-01-24 17:20:00,
2013-01-24 12:25:00,3.4,-16.6,29.99,NE,39,5.0,6.0,38,0.00,,,0.00,Wunderground v.1.15,2013-01-24 17:25:00,
2013-01-24 12:35:00,3.9,-17.2,29.99,West,274,7.0,11.0,36,0.00,,,0.00,Wunderground v.1.15,2013-01-24 17:35:00,
2013-01-24 12:40:00,4.3,-16.8,29.99,NE,38,9.0,9.0,36,0.00,,,0.00,Wunderground v.1.15,2013-01-24 17:40:00,
2013-01-24 12:45:00,4.8,-16.4,29.99,WNW,284,7.0,9.0,36,0.00,,,0.00,Wunderground v.1.15,2013-01-24 17:45:00,
2013-01-24 12:55:00,5.6,-16.2,29.98,SSW,207,4.0,7.0,35,0.00,,,0.00,Wunderground v.1.15,2013-01-24 17:55:00,
2013-01-24 13:00:00,5.7,-16.1,29.98,WSW,238,4.0,4.0,35,0.00,,,0.00,Wunderground v.1.15,2013-01-24 18:00:00,
2013-01-24 13:10:00,5.7,-16.1,29.97,South,190,4.0,4.0,35,0.00,,,0.00,Wunderground v.1.15,2013-01-24 18:10:00,
2013-01-24 13:15:00,5.7,-15.6,29.97,West,272,4.0,4.0,36,0.00,,,0.00,Wunderground v.1.15,2013-01-24 18:15:00,
2013-01-24 13:25:00,5.6,-15.6,29.97,SW,231,4.0,4.0,36,0.00,,,0.00,Wunderground v.1.15,2013-01-24 18:25:00,
2013-01-24 13:30:00,5.5,-15.7,29.97,NNW,348,5.0,7.0,36,0.00,,,0.00,Wunderground v.1.15,2013-01-24 18:30:00,
2013-01-24 13:40:00,5.6,-15.6,29.97,SSE,166,4.0,8.0,36,0.00,,,0.00,Wunderground v.1.15,2013-01-24 18:40:00,
2013-01-24 13:45:00,6.1,-14.7,29.96,SW,236,4.0,8.0,37,0.00,,,0.00,Wunderground v.1.15,2013-01-24 18:45:00,
2013-01-24 13:55:00,6.6,-14.7,29.95,ESE,113,5.0,10.0,36,0.00,,,0.00,Wunderground v.1.15,2013-01-24 18:55:00,
2013-01-24 14:00:00,7.0,-14.9,29.95,ESE,115,5.0,5.0,35,0.00,,,0.00,Wunderground v.1.15,2013-01-24 19:00:00,
2013-01-24 14:10:00,7.6,-15.0,29.96,NNW,327,2.0,3.0,34,0.00,,,0.00,Wunderground v.1.15,2013-01-24 19:10:00,
2013-01-24 14:15:00,7.7,-14.9,29.96,NE,48,3.0,3.0,34,0.00,,,0.00,Wunderground v.1.15,2013-01-24 19:15:00,
2013-01-24 14:25:00,8.4,-14.9,29.96,ESE,121,3.0,8.0,33,0.00,,,0.00,Wunderground v.1.15,2013-01-24 19:25:00,
2013-01-24 14:30:00,8.5,-14.8,29.96,WSW,246,5.0,5.0,33,0.00,,,0.00,Wunderground v.1.15,2013-01-24 19:30:00,
2013-01-24 14:35:00,8.6,-14.7,29.96,NNW,328,4.0,5.0,33,0.00,,,0.00,Wunderground v.1.15,2013-01-24 19:35:00,
2013-01-24 14:45:00,8.6,-15.3,29.97,WSW,248,5.0,8.0,32,0.00,,,0.00,Wunderground v.1.15,2013-01-24 19:45:00,
2013-01-24 14:50:00,8.5,-14.8,29.97,SSW,208,5.0,5.0,33,0.00,,,0.00,Wunderground v.1.15,2013-01-24 19:50:00,
2013-01-24 15:00:00,8.9,-14.4,29.96,SSE,149,3.0,6.0,33,0.00,,,0.00,Wunderground v.1.15,2013-01-24 20:00:00,
2013-01-24 15:10:00,9.1,-14.2,29.97,SE,128,3.0,8.0,33,0.00,,,0.00,Wunderground v.1.15,2013-01-24 20:10:00,
2013-01-24 15:15:00,9.0,-14.9,29.97,ENE,57,3.0,8.0,32,0.00,,,0.00,Wunderground v.1.15,2013-01-24 20:15:00,
2013-01-24 15:20:00,8.9,-14.4,29.97,NW,323,4.0,4.0,33,0.00,,,0.00,Wunderground v.1.15,2013-01-24 20:20:00,
2013-01-24 15:30:00,8.1,-14.5,29.98,NNE,16,5.0,5.0,34,0.00,,,0.00,Wunderground v.1.15,2013-01-24 20:30:00,
2013-01-24 15:35:00,7.6,-15.0,29.98,SW,222,5.0,5.0,34,0.00,,,0.00,Wunderground v.1.15,2013-01-24 20:35:00,
2013-01-24 15:45:00,7.2,-15.9,29.97,SE,139,4.0,5.0,33,0.00,,,0.00,Wunderground v.1.15,2013-01-24 20:45:00,
2013-01-24 15:50:00,6.9,-15.0,29.97,NNW,340,4.0,7.0,35,0.00,,,0.00,Wunderground v.1.15,2013-01-24 20:50:00,
2013-01-24 16:00:00,6.1,-15.2,29.98,SSE,153,6.0,6.0,36,0.00,,,0.00,Wunderground v.1.15,2013-01-24 21:00:00,
2013-01-24 16:05:00,5.8,-14.9,29.98,NNE,16,6.0,6.0,37,0.00,,,0.00,Wunderground v.1.15,2013-01-24 21:05:00,
2013-01-24 16:15:00,5.2,-14.9,29.98,West,266,5.0,13.0,38,0.00,,,0.00,Wunderground v.1.15,2013-01-24 21:15:00,
2013-01-24 16:20:00,4.9,-14.2,29.99,SW,226,5.0,5.0,40,0.00,,,0.00,Wunderground v.1.15,2013-01-24 21:20:00,
2013-01-24 16:25:00,4.7,-14.4,29.98,WNW,284,3.0,5.0,40,0.00,,,0.00,Wunderground v.1.15,2013-01-24 21:25:00,
2013-01-24 16:35:00,4.0,-13.1,29.97,SSW,193,5.0,5.0,44,0.00,,,0.00,Wunderground v.1.15,2013-01-24 21:35:00,
2013-01-24 16:40:00,3.7,-12.9,29.98,ENE,64,6.0,6.0,45,0.00,,,0.00,Wunderground v.1.15,2013-01-24 21:40:00,
2013-01-24 16:50:00,2.9,-12.8,29.96,WNW,282,6.0,13.0,47,0.00,,,0.00,Wunderground v.1.15,2013-01-24 21:50:00,
2013-01-24 16:55:00,2.7,-12.2,29.95,North,356,6.0,13.0,49,0.00,,,0.00,Wunderground v.1.15,2013-01-24 21:55:00,
2013-01-24 17:05:00,2.2,-12.2,29.98,NNW,327,7.0,11.0,50,0.00,,,0.00,Wunderground v.1.15,2013-01-24 22:05:00,
2013-01-24 17:10:00,2.0,-11.6,30.00,WNW,295,7.0,7.0,52,0.00,,,0.00,Wunderground v.1.15,2013-01-24 22:10:00,
2013-01-24 17:20:00,1.7,-11.1,30.00,SSE,162,6.0,6.0,54,0.00,,,0.00,Wunderground v.1.15,2013-01-24 22:20:00,
2013-01-24 17:25:00,1.5,-11.3,30.00,SSE,148,6.0,6.0,54,0.00,,,0.00,Wunderground v.1.15,2013-01-24 22:25:00,
2013-01-24 17:35:00,1.1,-11.3,30.00,WNW,298,5.0,6.0,55,0.00,,,0.00,Wunderground v.1.15,2013-01-24 22:35:00,
2013-01-24 17:40:00,1.0,-11.4,30.01,NNW,344,5.0,8.0,55,0.00,,,0.00,Wunderground v.1.15,2013-01-24 22:40:00,
2013-01-24 17:50:00,0.8,-11.3,30.00,WNW,295,7.0,15.0,56,0.00,,,0.00,Wunderground v.1.15,2013-01-24 22:50:00,
2013-01-24 17:55:00,0.8,-11.3,30.01,SW,222,7.0,15.0,56,0.00,,,0.00,Wunderground v.1.15,2013-01-24 22:55:00,
2013-01-24 18:05:00,0.7,-10.6,30.01,NNW,333,6.0,11.0,58,0.00,,,0.00,Wunderground v.1.15,2013-01-24 23:05:00,
2013-01-24 18:10:00,0.6,-11.1,30.02,SSW,201,6.0,6.0,57,0.00,,,0.00,Wunderground v.1.15,2013-01-24 23:10:00,
2013-01-24 18:20:00,0.6,-10.7,30.03,South,188,7.0,7.0,58,0.00,,,0.00,Wunderground v.1.15,2013-01-24 23:20:00,
2013-01-24 18:25:00,0.5,-11.2,30.03,NW,317,7.0,9.0,57,0.00,,,0.00,Wunderground v.1.15,2013-01-24 23:25:00,
2013-01-24 18:35:00,0.2,-11.1,30.02,SSW,197,8.0,8.0,58,0.00,,,0.00,Wunderground v.1.15,2013-01-24 23:35:00,
2013-01-24 18:40:00,0.2,-11.1,30.03,WSW,243,9.0,9.0,58,0.00,,,0.00,Wunderground v.1.15,2013-01-24 23:40:00,
2013-01-24 18:50:00,0.3,-11.0,30.05,SW,217,10.0,18.0,58,0.00,,,0.00,Wunderground v.1.15,2013-01-24 23:50:00,
2013-01-24 18:55:00,0.2,-10.8,30.03,SSW,212,10.0,18.0,59,0.00,,,0.00,Wunderground v.1.15,2013-01-24 23:55:00,
2013-01-24 19:00:00,0.1,-10.9,30.06,NNW,334,8.0,11.0,59,0.00,,,0.00,Wunderground v.1.15,2013-01-25 00:00:00,
2013-01-24 19:10:00,0.0,-11.0,30.08,East,87,7.0,7.0,59,0.00,,,0.00,Wunderground v.1.15,2013-01-25 00:10:00,
2013-01-24 19:15:00,0.0,-11.0,30.08,WNW,293,7.0,7.0,59,0.00,,,0.00,Wunderground v.1.15,2013-01-25 00:15:00,
2013-01-24 19:25:00,0.1,-10.9,30.09,WNW,291,7.0,8.0,59,0.00,,,0.00,Wunderground v.1.15,2013-01-25 00:25:00,
2013-01-24 19:30:00,0.1,-11.2,30.09,SSE,165,8.0,8.0,58,0.00,,,0.00,Wunderground v.1.15,2013-01-25 00:30:00,
2013-01-24 19:40:00,-0.1,-11.0,30.10,NW,314,5.0,11.0,59,0.00,,,0.00,Wunderground v.1.15,2013-01-25 00:40:00,
2013-01-24 19:45:00,-0.2,-11.5,30.08,SSE,148,6.0,11.0,58,0.00,,,0.00,Wunderground v.1.15,2013-01-25 00:45:00,
2013-01-24 19:55:00,-0.2,-11.1,30.08,NNW,342,6.0,8.0,59,0.00,,,0.00,Wunderground v.1.15,2013-01-25 00:55:00,
2013-01-24 20:00:00,-0.3,-10.9,30.07,SE,131,7.0,8.0,60,0.00,,,0.00,Wunderground v.1.15,2013-01-25 01:00:00,
2013-01-24 20:10:00,-0.3,-10.2,30.09,North,8,9.0,9.0,62,0.00,,,0.00,Wunderground v.1.15,2013-01-25 01:10:00,
2013-01-24 20:15:00,-0.3,-10.2,30.11,WSW,239,8.0,9.0,62,0.00,,,0.00,Wunderground v.1.15,2013-01-25 01:15:00,
2013-01-24 20:20:00,-0.3,-10.2,30.11,NW,314,7.0,7.0,62,0.00,,,0.00,Wunderground v.1.15,2013-01-25 01:20:00,
2013-01-24 20:30:00,-0.3,-10.6,30.10,South,191,8.0,8.0,61,0.00,,,0.00,Wunderground v.1.15,2013-01-25 01:30:00,
2013-01-24 20:35:00,-0.3,-10.2,30.11,SE,131,7.0,8.0,62,0.00,,,0.00,Wunderground v.1.15,2013-01-25 01:35:00,
2013-01-24 20:45:00,-0.3,-10.6,30.11,SE,146,6.0,8.0,61,0.00,,,0.00,Wunderground v.1.15,2013-01-25 01:45:00,
2013-01-24 20:50:00,-0.2,-10.5,30.12,NNW,330,7.0,15.0,61,0.00,,,0.00,Wunderground v.1.15,2013-01-25 01:50:00,
2013-01-24 21:00:00,-0.1,-10.7,30.11,NNW,340,8.0,8.0,60,0.00,,,0.00,Wunderground v.1.15,2013-01-25 02:00:00,
2013-01-24 21:05:00,-0.1,-11.0,30.12,NNW,336,9.0,9.0,59,0.00,,,0.00,Wunderground v.1.15,2013-01-25 02:05:00,
2013-01-24 21:15:00,-0.3,-10.9,30.12,SE,131,4.0,7.0,60,0.00,,,0.00,Wunderground v.1.15,2013-01-25 02:15:00,
2013-01-24 21:20:00,-0.4,-11.3,30.13,West,274,5.0,10.0,59,0.00,,,0.00,Wunderground v.1.15,2013-01-25 02:20:00,
2013-01-24 21:30:00,-0.6,-11.2,30.12,NNW,331,4.0,4.0,60,0.00,,,0.00,Wunderground v.1.15,2013-01-25 02:30:00,
2013-01-24 21:35:00,-0.6,-11.2,30.12,WSW,251,4.0,7.0,60,0.00,,,0.00,Wunderground v.1.15,2013-01-25 02:35:00,
2013-01-24 21:40:00,-0.7,-11.3,30.11,SSE,157,4.0,4.0,60,0.00,,,0.00,Wunderground v.1.15,2013-01-25 02:40:00,
2013-01-24 21:50:00,-0.8,-11.4,30.11,ESE,119,6.0,6.0,60,0.00,,,0.00,Wunderground v.1.15,2013-01-25 02:50:00,
2013-01-24 21:55:00,-0.8,-11.0,30.11,WSW,249,5.0,8.0,61,0.00,,,0.00,Wunderground v.1.15,2013-01-25 02:55:00,
2013-01-24 22:05:00,-0.7,-11.3,30.10,SSE,149,6.0,9.0,60,0.00,,,0.00,Wunderground v.1.15,2013-01-25 03:05:00,
2013-01-24 22:10:00,-0.7,-10.9,30.10,WNW,289,7.0,12.0,61,0.00,,,0.00,Wunderground v.1.15,2013-01-25 03:10:00,